Location: Glendale
(37.4556°N, 88.6714°W)
Time: 05:40:39
(UTC+00:00)

Cosmos 1174 - Pass Details

Date: 08 December 2019
Orbit: 376 x 1144 km, 66.1° (Epoch: 28 January)

Event Time Altitude Azimuth Distance (km) Brightness Sun altitude
Rises 00:21:09 0° 203° (SSW) 3,496 8.4 -20.2°
Reaches altitude 10° 00:23:54 10° 202° (SSW) 2,434 7.5 -20.7°
Maximum altitude 00:29:26 76° 118° (ESE) 726 4.2 -21.8°
Enters shadow 00:30:25 55° 49° (NE) 812 4.3 -22.0°
